Regional Weather Roundup
Issued by NWS

Home | Current Version | Previous Version | Text Only | Print | Product List | Glossary Off
Versions: 1 2 3 4 5 6 7 8 9 10 11 12 13 14 15 16 17 18 19 20 21 22 23 24 25 26 27 28 29 30 31 32 33 34 35 36 37 38 39 40 41 42 43 44 45 46 47 48 49 50

000
ASUS43 KTOP 032159
RWRKS

WEATHER ROUNDUP FOR KANSAS
NATIONAL WEATHER SERVICE GOODLAND KS
500 PM CDT MON AUG 03 2015

NOTE:  "FAIR" INDICATES FEW OR NO CLOUDS BELOW 12,000 FEET WITH NO
SIGNIFICANT WEATHER AND/OR OBSTRUCTIONS TO VISIBILITY.

KSZ001>006-013>018-027>032-041>047-032300-
NORTHWEST KANSAS

CITY           SKY/WX    TMP DP  RH WIND       PRES   REMARKS
GOODLAND       CLOUDY    89  58  34 SE12      29.99S
HAYS           PTSUNNY   91  64  40 S13       29.91S
HILL CITY      PTSUNNY   94  65  38 SE12      29.92F HX  96
RUSSELL        PTSUNNY   92  66  42 E9        29.89F
$$

KSZ061>065-074>080-084>089-032300-
SOUTHWEST KANSAS

CITY           SKY/WX    TMP DP  RH WIND       PRES   REMARKS
DODGE CITY     MOSUNNY   90  61  37 S9G18     29.95F
ELKHART          N/A     86  66  51 SE12        N/A
GARDEN CITY    MOSUNNY   88  62  41 S12       29.95F
GREAT BEND     PTSUNNY   91  66  43 S10       29.91S
LIBERAL        PTSUNNY   90  64  43 SE12G17   29.93F
$$

KSZ066>073-081>083-090>101-032300-
SOUTHEAST KANSAS

CITY           SKY/WX    TMP DP  RH WIND       PRES   REMARKS
CHANUTE        MOSUNNY   93  66  40 S9        29.91F HX  96
COFFEYVILLE    PTSUNNY   93  64  38 S8        29.91F
HUTCHINSON     PTSUNNY   92  69  47 S10       29.92F HX  97
MEDICINE LODGE   N/A     93  67  42 S9        29.91S HX  96
NEWTON         PTSUNNY   91  68  46 S9        29.95F HX  95
PARSONS        MOSUNNY   91  68  46 VRB6      29.93F HX  95
WICHITA INTL   PTSUNNY   92  71  50 SE13      29.91F HX  98
WICHITA JABRA  PTSUNNY   92  70  48 S9        29.92F HX  97
$$

KSZ007>012-019>026-033>040-048>060-102>105-032300-
NORTHEAST KANSAS

CITY           SKY/WX    TMP DP  RH WIND       PRES   REMARKS
CONCORDIA      SUNNY     91  69  48 SE9       29.90F HX  96
EMPORIA        MOSUNNY   92  66  42 SW5       29.91F
LAWRENCE       MOSUNNY   93  69  45 S6        29.89F HX  98
MANHATTAN      MOSUNNY   94  69  44 SE8       29.88F HX  99
OLATHE IND     MOSUNNY   93  69  45 W3        29.91F HX  98
OLATHE EXE     MOSUNNY   91  73  55 E6        29.90F HX  99
SALINA         PTSUNNY   93  68  43 SE7       29.89F HX  97
TOPEKA BILLARD SUNNY     93  68  43 S8        29.89S HX  97
TOPEKA FORBES  MOSUNNY   95  68  41 SE3       29.90F HX  99
$$



USA.gov is the U.S. government's official web portal to all federal, state and local government web resources and services.